This demonstration page uses our WeatherBlox Daily Observations layout. Learn more.

Left ArrowRight Arrow

Hourly Observations for May 24, 2020

Temp ( °F °C ) Dew Point ( °F °C ) Humidity (%) Winds ( mph kmh ) Pressure ( in mb ) Visibility ( mi km ) Precip ( " mm )
12:53 am 00:53 Clear 73 22.8 52 11.1 48 48 SSE 16 26 29.66 1004 10 16 0.00 0.00
1:53 am 01:53 Clear 70 21.1 52 11.1 53 53 SE 9 15 29.67 1005 10 16 0.00 0.00
2:53 am 02:53 Clear 70 21.1 53 11.7 55 55 SSE 14 22 29.66 1004 10 16 0.00 0.00
3:53 am 03:53 Clear 70 21.1 57 13.9 64 64 SSE 18 30 29.65 1004 10 16 0.00 0.00
4:53 am 04:53 Clear 69 20.6 57 13.9 66 66 SSE 14 22 29.64 1004 10 16 0.00 0.00
5:53 am 05:53 Clear 68 20 57 13.9 68 68 ESE 12 19 29.65 1004 10 16 0.00 0.00
6:53 am 06:53 Sunny 66 18.9 58 14.4 75 75 SE 12 19 29.66 1004 10 16 0.00 0.00
7:53 am 07:53 Sunny 67 19.4 58 14.4 73 73 SE 10 17 29.68 1005 10 16 0.00 0.00
8:53 am 08:53 Sunny 72 22.2 57 13.9 59 59 SSE 12 19 29.68 1005 10 16 0.00 0.00
9:53 am 09:53 Sunny 78 25.6 52 11.1 40 40 SSW 8 13 29.68 1005 10 16 0.00 0.00
10:14 am 10:14 Mostly Sunny 79 26.1 50 10 36 36 VRB 5 7 29.64 1004 10 16 0.00 0.00
10:53 am 10:53 Sunny 82 27.8 48 8.9 31 31 VRB 5 7 29.66 1004 10 16 0.00 0.00
11:53 am 11:53 Sunny 88 31.1 43 6.1 21 21 VRB 5 7 29.65 1004 10 16 0.00 0.00
12:53 pm 12:53 Sunny 93 33.9 39 3.9 15 15 N 8 13 29.63 1003 10 16 0.00 0.00
1:53 pm 13:53 Sunny 93 33.9 32 0 11 11 WSW 9 15 29.61 1003 10 16 0.00 0.00
2:53 pm 14:53 Sunny 94 34.4 29 -1.7 10 10 Calm 29.58 1002 10 16 0.00 0.00
3:53 pm 15:53 Sunny 95 35 31 -0.6 10 10 SW 9 15 29.53 1000 10 16 0.00 0.00
4:53 pm 16:53 Sunny 96 35.6 31 -0.6 10 10 undefined N/A 29.50 999 10 16 0.00 0.00
5:53 pm 17:53 Sunny 96 35.6 28 -2.2 9 9 WSW 14 22 29.48 998 10 16 0.00 0.00
6:53 pm 18:53 Sunny 88 31.1 51 10.6 28 28 SSE 22 35 29.49 999 10 16 0.00 0.00
7:53 pm 19:53 Sunny 87 30.6 48 8.9 26 26 SSE 13 20 29.50 999 10 16 0.00 0.00
8:53 pm 20:53 Clear 85 29.4 43 6.1 23 23 SSE 15 24 29.52 1000 10 16 0.00 0.00
9:53 pm 21:53 Clear 76 24.4 43 6.1 31 31 S 22 35 29.52 1000 10 16 0.00 0.00
10:53 pm 22:53 Clear 72 22.2 46 7.8 40 40 S 16 26 29.52 1000 10 16 0.00 0.00
11:53 pm 23:53 Clear 69 20.6 46 7.8 44 44 SE 13 20 29.59 1002 10 16 0.00 0.00

Powered by AerisWeather